Weather History for KLCG - March, 2013

Change the Weather History Date:

Saturday, March 2, 2013

  Actual Average (KOFK) Record (KOFK)
Temperature  
Mean Temperature 16 °F 32 °F  
Max Temperature 34 °F 42 °F 78 °F (1992)
Min Temperature -1 °F 22 °F -15 °F (1913)
Degree Days  
Heating Degree Days 48 33  
Month to date heating degree days 67  
Since 1 July heating degree days 5160  
Cooling Degree Days 0 0  
Month to date cooling degree days 0  
Year to date cooling degree days 0  
Moisture  
Dew Point 14 °F    
Average Humidity 82    
Maximum Humidity 96    
Minimum Humidity 65    
Precipitation  
Precipitation 0.00 in 0.03 in 0.66 in (1951)
Month to date precipitation 0.07  
Year to date precipitation 1.42  
Snow  
Snow 0.00 in 0.20 in - ()
Month to date snowfall 0.4  
Since 1 July snowfall 23.2  
Snow Depth -    
Sea Level Pressure  
Sea Level Pressure 30.21 in    
Wind  
Wind Speed 4 mph (SSE)    
Max Wind Speed 13 mph    
Max Gust Speed -    
Visibility 9 miles    
Events Fog    
T = Trace of Precipitation, MM = Missing Value Source: NWS Daily Summary

Daily Weather History Graph

Daily Weather History Graph

Search for Another Location

Airport or City:

Trip Planner

Search our weather history database for the weather conditions in past years. The results will help you decide how hot, cold, wet, or windy it might be!

Date:

Astronomy

Mar. 02, 2013 Rise Set
Actual Time 7:01 AM CST 6:19 PM CST
Civil Twilight 6:33 AM CST 6:47 PM CST
Nautical Twilight 6:00 AM CST 7:20 PM CST
Astronomical Twilight 5:28 AM CST 7:52 PM CST
Moon No Moon Rise 9:23 AM CST (3/2)
Length of Visible Light 12h 14m
Length of Day
11h 18m
Waning Gibbous, 74% of the Moon is Illuminated
Mar 2
Waning Gibbous
Mar 4
Last Quarter
Mar 11
New
Mar 19
First Quarter
Mar 27
Full

Hourly Weather History & Observations

Time (CST) Temp. Windchill Dew Point Humidity Pressure Visibility Wind Dir Wind Speed Gust Speed Precip Events Conditions
12:15 AM 1.2 °F - -2.6 °F 84% 30.35 in 10.0 mi Calm Calm - N/A   Clear
12:35 AM 3.2 °F - 0.1 °F 87% 30.34 in 10.0 mi Calm Calm - N/A   Clear
12:55 AM 1.2 °F - -2.6 °F 84% 30.34 in 10.0 mi Calm Calm - N/A   Clear
1:15 AM 1.0 °F - -2.6 °F 85% 30.35 in 10.0 mi Calm Calm - N/A   Clear
1:35 AM 0.1 °F - -3.5 °F 85% 30.34 in 10.0 mi Calm Calm - N/A   Clear
1:55 AM 1.2 °F - -2.2 °F 86% 30.34 in 10.0 mi Calm Calm - N/A   Clear
2:15 AM 1.9 °F - -1.5 °F 86% 30.34 in 10.0 mi Calm Calm - N/A   Clear
2:35 AM -0.0 °F - -3.8 °F 84% 30.33 in 10.0 mi Calm Calm - N/A   Clear
2:55 AM -0.6 °F - -4.4 °F 84% 30.32 in 10.0 mi Calm Calm - N/A   Clear
3:15 AM -1.3 °F - -5.1 °F 84% 30.32 in 10.0 mi Calm Calm - N/A   Clear
3:55 AM -1.1 °F - -4.9 °F 84% 30.32 in 10.0 mi Calm Calm - N/A   Scattered Clouds
4:15 AM -1.1 °F - -4.7 °F 85% 30.32 in 10.0 mi Calm Calm - N/A   Overcast
4:35 AM -1.3 °F - -4.9 °F 85% 30.32 in 10.0 mi Calm Calm - N/A   Overcast
4:55 AM 0.1 °F - -3.5 °F 85% 30.32 in 10.0 mi Calm Calm - N/A   Overcast
5:15 AM 0.9 °F - -2.7 °F 85% 30.32 in 10.0 mi Calm Calm - N/A   Overcast
5:55 AM 0.5 °F - -2.9 °F 85% 30.32 in 4.0 mi Calm Calm - N/A   Mostly Cloudy
6:15 AM 1.2 °F - -2.4 °F 85% 30.31 in 4.0 mi Calm Calm - N/A   Overcast
6:35 AM 0.3 °F - -3.5 °F 84% 30.32 in 10.0 mi Calm Calm - N/A   Overcast
6:55 AM 0.9 °F - -2.9 °F 84% 30.32 in 1.0 mi Calm Calm - N/A   Overcast
7:15 AM 1.8 °F - -1.8 °F 85% 30.31 in 1.2 mi Calm Calm - N/A   Overcast
7:35 AM 3.2 °F - -0.2 °F 86% 30.30 in 1.0 mi Calm Calm - N/A   Overcast
7:55 AM 4.8 °F - 1.8 °F 87% 30.31 in 0.5 mi Calm Calm - N/A Fog Light Freezing Fog
8:15 AM 5.0 °F - 2.1 °F 88% 30.31 in 4.0 mi Calm Calm - N/A   Mostly Cloudy
8:35 AM 5.5 °F - 2.7 °F 88% 30.30 in 4.0 mi Calm Calm - N/A   Mostly Cloudy
8:55 AM 7.3 °F - 4.3 °F 87% 30.30 in 5.0 mi Calm Calm - N/A   Mostly Cloudy
9:15 AM 10.0 °F - 7.7 °F 90% 30.29 in 5.0 mi Calm Calm - N/A   Mostly Cloudy
9:35 AM 11.5 °F - 9.0 °F 90% 30.28 in 7.0 mi Calm Calm - N/A   Mostly Cloudy
9:55 AM 16.2 °F 9.0 °F 14.7 °F 94% 30.28 in 7.0 mi South 4.6 mph - N/A   Scattered Clouds
10:15 AM 18.7 °F 10.6 °F 17.4 °F 95% 30.27 in 10.0 mi South 5.8 mph - N/A   Scattered Clouds
10:35 AM 20.3 °F 12.5 °F 19.0 °F 95% 30.28 in 10.0 mi South 5.8 mph - N/A   Mostly Cloudy
10:55 AM 21.6 °F 16.8 °F 20.5 °F 96% 30.27 in 10.0 mi South 3.5 mph - N/A   Overcast
11:15 AM 22.6 °F 13.4 °F 21.6 °F 96% 30.26 in 10.0 mi SSE 8.1 mph - N/A   Overcast
11:35 AM 23.7 °F 15.6 °F 22.8 °F 96% 30.25 in 10.0 mi SSE 6.9 mph - N/A   Overcast
11:55 AM 24.4 °F 14.9 °F 22.8 °F 94% 30.25 in 10.0 mi SSE 9.2 mph - N/A   Overcast
12:15 PM 26.1 °F 17.6 °F 22.8 °F 88% 30.24 in 10.0 mi South 8.1 mph - N/A   Overcast
12:35 PM 27.7 °F 18.8 °F 22.3 °F 80% 30.23 in 10.0 mi South 9.2 mph - N/A   Overcast
12:55 PM 29.1 °F 21.3 °F 22.6 °F 77% 30.22 in 10.0 mi SSE 8.1 mph - N/A   Overcast
1:15 PM 30.2 °F 21.9 °F 23.2 °F 75% 30.20 in 10.0 mi SSE 9.2 mph - N/A   Overcast
1:35 PM 30.6 °F 22.4 °F 23.2 °F 74% 30.19 in 10.0 mi South 9.2 mph - N/A   Overcast
1:55 PM 31.8 °F 23.3 °F 22.6 °F 69% 30.18 in 10.0 mi SSE 10.4 mph - N/A   Overcast
2:15 PM 31.6 °F 23.1 °F 21.7 °F 67% 30.17 in 10.0 mi SSE 10.4 mph - N/A   Overcast
2:35 PM 32.0 °F 22.5 °F 22.1 °F 67% 30.16 in 10.0 mi SSE 12.7 mph - N/A   Overcast
2:55 PM 32.4 °F 24.6 °F 22.1 °F 66% 30.16 in 10.0 mi SSE 9.2 mph - N/A   Overcast
3:15 PM 32.4 °F 23.5 °F 22.6 °F 67% 30.15 in 10.0 mi SSE 11.5 mph - N/A   Overcast
3:35 PM 32.9 °F 24.7 °F 23.2 °F 67% 30.15 in 10.0 mi SSE 10.4 mph - N/A   Overcast
3:55 PM 33.4 °F 24.8 °F 24.1 °F 69% 30.14 in 10.0 mi SSE 11.5 mph - N/A   Overcast
4:15 PM 33.6 °F 25.0 °F 23.7 °F 67% 30.14 in 10.0 mi SSE 11.5 mph - N/A   Scattered Clouds
4:35 PM 34.2 °F 25.2 °F 23.4 °F 65% 30.13 in 10.0 mi SSE 12.7 mph - N/A   Mostly Cloudy
4:55 PM 33.6 °F 25.0 °F 24.1 °F 68% 30.13 in 10.0 mi SSE 11.5 mph - N/A   Scattered Clouds
5:15 PM 32.4 °F 23.5 °F 23.7 °F 70% 30.13 in 10.0 mi SSE 11.5 mph - N/A   Clear
5:35 PM 32.0 °F 24.2 °F 23.9 °F 72% 30.12 in 10.0 mi SSE 9.2 mph - N/A   Clear
5:55 PM 31.1 °F 22.4 °F 24.4 °F 76% 30.12 in 10.0 mi SSE 10.4 mph - N/A   Clear
6:15 PM 31.1 °F 22.4 °F 24.3 °F 76% 30.12 in 10.0 mi SSE 10.4 mph - N/A   Clear
6:35 PM 31.3 °F 22.7 °F 24.3 °F 75% 30.10 in 10.0 mi SSE 10.4 mph - N/A   Clear
6:55 PM 30.7 °F 22.0 °F 24.6 °F 78% 30.10 in 10.0 mi SSE 10.4 mph - N/A   Clear
7:15 PM 30.6 °F 22.4 °F 24.6 °F 79% 30.10 in 10.0 mi SSE 9.2 mph - N/A   Clear
7:35 PM 30.6 °F 21.8 °F 24.4 °F 78% 30.10 in 10.0 mi SSE 10.4 mph - N/A   Clear
7:55 PM 30.2 °F 21.9 °F 24.4 °F 79% 30.10 in 10.0 mi SSE 9.2 mph - N/A   Clear
8:15 PM 30.2 °F 20.8 °F 24.4 °F 79% 30.09 in 10.0 mi SSE 11.5 mph - N/A   Clear
8:35 PM 30.2 °F 21.3 °F 24.6 °F 80% 30.08 in 10.0 mi SSE 10.4 mph - N/A   Clear
8:55 PM 30.0 °F 21.1 °F 24.6 °F 80% 30.07 in 10.0 mi SSE 10.4 mph - N/A   Clear
9:15 PM 30.2 °F 21.9 °F 24.6 °F 80% 30.07 in 10.0 mi South 9.2 mph - N/A   Clear
9:35 PM 30.2 °F 21.9 °F 24.8 °F 80% 30.07 in 10.0 mi SSE 9.2 mph - N/A   Clear
9:55 PM 30.2 °F 22.6 °F 25.2 °F 82% 30.07 in 10.0 mi SSE 8.1 mph - N/A   Clear
10:15 PM 30.2 °F 23.4 °F 25.5 °F 83% 30.07 in 10.0 mi SSE 6.9 mph - N/A   Clear
10:35 PM 30.0 °F 21.7 °F 25.3 °F 83% 30.06 in 10.0 mi SSE 9.2 mph - N/A   Clear
10:55 PM 29.8 °F 22.2 °F 25.3 °F 83% 30.05 in 10.0 mi SSE 8.1 mph - N/A   Clear
11:15 PM 29.7 °F 21.3 °F 25.3 °F 84% 30.05 in 10.0 mi SSE 9.2 mph - N/A   Clear
11:35 PM 29.7 °F 21.3 °F 25.3 °F 84% 30.04 in 10.0 mi SSE 9.2 mph - N/A   Clear
11:55 PM 29.7 °F 20.7 °F 25.3 °F 84% 30.03 in 10.0 mi SSE 10.4 mph - N/A   Clear